Location: Corralito
(10.2667°N, 66.9500°W)
Time: 22:00:30
(UTC+00:00)

Cosmos 1190 Rocket - Visible Passes

Search period start: 04 December 2023 00:00
Search period end: 14 December 2023 00:00
Orbit: 754 x 779 km, 74.1° (Epoch: 03 December)

Date Brightness Start Highest point End Pass type
(mag) Time Alt. Az. Time Alt. Az. Time Alt. Az.
04 Dec 6.5 00:16:22 10° SSE 00:16:22 10° SSE 00:16:24 10° SSE visible
04 Dec 4.5 23:28:45 10° N 23:34:52 39° ESE 23:38:44 10° SSE visible
05 Dec 7.0 01:14:51 10° W 01:15:22 10° W 01:15:52 10° WSW visible
05 Dec 5.1 22:52:17 10° NNE 22:56:19 22° ENE 23:00:19 10° SE visible
06 Dec 6.2 00:34:04 10° NW 00:38:03 22° W 00:42:02 10° SSW visible
06 Dec 5.0 23:55:45 10° NNW 00:00:44 45° W 00:05:42 10° S visible
07 Dec 3.9 23:18:06 10° NNW 23:23:22 86° ENE 23:28:36 10° SSE visible
08 Dec 4.4 22:41:02 10° N 22:45:58 41° ENE 22:50:52 10° SE visible
09 Dec 7.1 00:26:03 10° W 00:27:35 11° W 00:29:06 10° WSW visible
09 Dec 6.3 23:46:07 10° NW 23:50:16 24° W 23:54:24 10° SSW visible
10 Dec 5.0 23:07:53 10° NNW 23:12:56 49° WSW 23:17:57 10° S visible
11 Dec 7.1 10:05:46 10° SE 10:09:05 17° E 10:12:25 10° ENE visible
11 Dec 4.0 22:30:19 10° N 22:35:34 80° ENE 22:40:46 10° SSE visible
12 Dec 7.2 23:37:42 10° WNW 23:39:47 12° W 23:41:50 10° WSW visible
13 Dec 6.4 22:58:11 10° NW 23:02:27 26° W 23:06:44 10° SSW visible
